Waarnemingen

Advertentie
Mijn weer
Socoa, Frankrijk (7600): temperatuur & dauwpunt: 28.11.2020 00:00:00 - 04.12.2020 00:00:00 (CET)Socoa, Frankrijk (7600): windsnelheid & windstoten: 28.11.2020 00:00:00 - 04.12.2020 00:00:00 (CET)Socoa, Frankrijk (7600): windrichting: 28.11.2020 00:00:00 - 04.12.2020 00:00:00 (CET)Socoa, Frankrijk (7600): luchtdruk: 28.11.2020 00:00:00 - 04.12.2020 00:00:00 (CET)Socoa, Frankrijk (7600): zicht: 28.11.2020 00:00:00 - 04.12.2020 00:00:00 (CET)Socoa, Frankrijk (7600): neerslag: 28.11.2020 00:00:00 - 04.12.2020 00:00:00 (CET)
Datum & Tijd tt [°C] td [°C] ff [km/u] ff [kn] fx [km/u] fx [kn] dd ppp [hPa] vv [km] rr [mm]
04.12.2020 00:00:00 10,5 7,9 45 24 70 38 W 995,7 - 1,4
03.12.2020 23:00:00 11,8 4,7 30 16 61 33 WZW 994,6 - 0,2
03.12.2020 22:00:00 12,1 2,5 19 10 40 22 ZZW 994,1 - 0,0
03.12.2020 21:00:00 12,0 3,2 21 12 37 20 Z 995,4 - 0,0
03.12.2020 20:00:00 12,1 2,3 25 13 47 26 Z 997,2 - 0,0
03.12.2020 19:00:00 12,0 1,6 15 8 36 19 Z 998,7 - 0,0
03.12.2020 18:00:00 12,6 1,0 20 11 37 20 ZZW 1000,1 - 0,0
03.12.2020 17:00:00 12,2 2,3 17 9 42 23 ZZW 1001,5 - 0,0
03.12.2020 16:00:00 12,8 4,2 14 8 28 15 ZZW 1002,4 25 0,0
03.12.2020 15:00:00 13,4 4,0 16 8 34 19 ZW 1003,4 - 0,0
03.12.2020 14:00:00 14,8 5,3 21 11 36 19 WZW 1005,5 - 0,0
03.12.2020 13:00:00 14,4 5,2 19 10 34 18 ZW 1007,3 25 0,0
03.12.2020 12:00:00 13,8 5,4 19 10 32 18 ZZW 1008,5 - 0,0
03.12.2020 11:00:00 12,1 7,6 14 8 24 13 ZZW 1010,2 - 0,0
03.12.2020 10:00:00 10,3 6,4 16 9 24 13 ZZW 1011,3 25 0,0
03.12.2020 09:00:00 9,1 6,2 15 8 28 15 ZZW 1012,1 - 0,0
03.12.2020 08:00:00 9,4 7,0 18 10 33 18 ZZW 1012,8 - 0,0
03.12.2020 07:00:00 9,1 6,9 20 11 31 17 ZZW 1014,0 15 0,0
03.12.2020 06:00:00 8,6 6,6 19 11 29 16 ZZW 1014,7 - 0,2
03.12.2020 05:00:00 8,3 5,6 20 11 30 16 ZZW 1016,0 - 0,0
03.12.2020 04:00:00 7,8 4,9 17 9 26 14 ZZW 1016,6 20 0,0
03.12.2020 03:00:00 7,9 5,0 18 10 25 14 ZZW 1017,4 - 0,2
03.12.2020 02:00:00 7,7 4,3 18 10 25 13 ZZW 1018,4 - 0,0
03.12.2020 01:00:00 7,0 4,5 20 11 26 14 ZZW 1019,2 - 0,0
03.12.2020 00:00:00 6,5 4,7 16 9 21 12 ZZW 1019,6 - 0,0
02.12.2020 23:00:00 7,4 5,2 14 8 29 16 Z 1020,1 - 0,2
02.12.2020 22:00:00 7,6 4,5 19 11 27 15 ZW 1020,8 22 0,0
02.12.2020 21:00:00 6,9 3,9 15 8 20 11 ZZW 1021,1 - 0,0
02.12.2020 20:00:00 6,8 3,8 11 6 19 10 Z 1021,4 - 0,0
02.12.2020 19:00:00 6,4 4,1 12 7 17 9 Z 1021,2 15 0,0
02.12.2020 18:00:00 6,5 4,2 11 6 14 8 Z 1021,4 - 0,0
02.12.2020 17:00:00 8,0 4,4 10 5 12 7 Z 1021,5 - 0,0
02.12.2020 16:00:00 9,0 3,8 7 4 24 13 ZW 1021,5 25 0,2
02.12.2020 15:00:00 10,3 1,6 3 2 11 6 N 1021,3 - 0,0
02.12.2020 14:00:00 10,6 1,1 2 1 10 6 O 1021,4 - 0,0
02.12.2020 13:00:00 10,1 2,2 3 2 9 5 ZO 1021,7 24 0,0
02.12.2020 12:00:00 9,8 2,4 5 3 9 5 OZO 1022,2 - 0,0
02.12.2020 11:00:00 8,0 3,5 6 3 14 8 Z 1022,4 - 0,0
02.12.2020 10:00:00 5,9 3,7 9 5 14 7 Z 1022,3 15 0,0
02.12.2020 09:00:00 4,5 3,3 10 5 13 7 ZO 1022,3 - 0,0
02.12.2020 08:00:00 4,4 2,7 7 4 16 9 Z 1022,0 - 0,0
02.12.2020 07:00:00 5,1 2,9 9 5 16 8 ZZO 1022,0 - 0,0
02.12.2020 06:00:00 5,8 3,5 8 5 19 10 ZO 1022,1 - 0,0
02.12.2020 05:00:00 6,2 3,9 13 7 26 14 ZO 1022,3 - 0,0
02.12.2020 04:00:00 6,6 4,1 13 7 21 11 OZO 1022,6 15 0,0
02.12.2020 03:00:00 7,1 4,4 19 10 30 16 ONO 1022,9 - 0,0
02.12.2020 02:00:00 7,3 4,4 22 12 39 21 NO 1022,7 - 0,0
02.12.2020 01:00:00 8,0 5,5 25 13 41 22 NO 1022,7 18 0,0
02.12.2020 00:00:00 9,6 8,2 20 11 34 18 NO 1022,5 - 0,0
01.12.2020 23:00:00 9,8 8,2 18 10 27 15 O 1022,3 - 0,0
01.12.2020 22:00:00 9,9 8,3 12 6 21 11 ONO 1022,4 16 0,0
01.12.2020 21:00:00 10,2 8,6 14 7 - - O 1022,3 - -
01.12.2020 20:00:00 - - - - - - - - - -
01.12.2020 19:00:00 12,5 11,1 36 19 57 31 W 1021,6 - 1,0
01.12.2020 18:00:00 13,8 10,2 37 20 48 26 W 1021,7 - 0,0
01.12.2020 17:00:00 13,2 10,7 27 15 42 23 W 1022,7 - 0,0
01.12.2020 16:00:00 13,6 10,8 25 14 39 21 W 1023,2 20 0,0
01.12.2020 15:00:00 13,7 10,3 28 15 37 20 W 1023,8 - 0,0
01.12.2020 14:00:00 13,6 9,6 22 12 33 18 W 1024,7 - 0,0
01.12.2020 13:00:00 13,2 9,3 17 9 31 17 WZW 1025,5 20 0,0
01.12.2020 12:00:00 12,2 8,7 16 9 29 15 ZW 1026,6 - 0,0
01.12.2020 11:00:00 11,8 8,6 15 8 24 13 ZW 1027,0 - 0,0
01.12.2020 10:00:00 10,3 8,1 13 7 23 13 ZW 1027,1 18 0,0
01.12.2020 09:00:00 9,2 7,5 16 9 24 13 ZW 1026,9 - 0,0
01.12.2020 08:00:00 8,9 7,3 16 9 23 12 ZW 1026,9 - 0,0
01.12.2020 07:00:00 8,8 7,4 17 9 23 12 ZW 1027,0 18 0,0
01.12.2020 06:00:00 8,8 7,2 11 6 19 10 ZW 1027,2 - 0,0
01.12.2020 05:00:00 9,4 7,8 11 6 18 10 ZZW 1027,2 - 0,0
01.12.2020 04:00:00 9,8 8,2 8 5 19 11 ZW 1027,6 20 0,0
01.12.2020 03:00:00 10,0 8,6 11 6 20 11 ZW 1027,6 - 0,0
01.12.2020 02:00:00 10,3 9,2 12 7 23 12 ZW 1027,7 - 0,0
01.12.2020 01:00:00 9,6 8,7 11 6 18 10 ZW 1027,6 15 0,0
01.12.2020 00:00:00 9,1 8,2 11 6 14 8 ZW 1027,8 - 0,0
30.11.2020 23:00:00 9,8 8,4 11 6 13 7 ZZW 1027,4 - 0,0
30.11.2020 22:00:00 10,4 9,0 4 2 9 5 ZW 1027,7 - 0,0
30.11.2020 21:00:00 10,7 9,1 4 2 9 5 ZZW 1027,0 - 0,0
30.11.2020 20:00:00 11,2 8,8 4 2 19 11 ZZW 1026,5 - 0,0
30.11.2020 19:00:00 12,0 9,6 8 4 21 11 NNW 1026,5 15 0,0
30.11.2020 18:00:00 11,9 9,6 10 6 23 12 NNW 1026,2 - 0,0
30.11.2020 17:00:00 12,1 10,2 13 7 21 11 NNW 1025,6 - 0,0
30.11.2020 16:00:00 12,4 10,5 14 7 22 12 NW 1025,3 - 0,0
30.11.2020 15:00:00 12,4 10,5 15 8 21 11 NW 1025,2 - 0,0
30.11.2020 14:00:00 12,5 11,1 9 5 18 10 NNW 1025,2 - 0,0
30.11.2020 13:00:00 12,5 10,6 14 8 22 12 N 1025,2 - 0,0
30.11.2020 12:00:00 14,1 10,9 12 6 18 10 W 1025,3 - 0,0
30.11.2020 11:00:00 13,5 11,5 8 5 21 11 ZW 1025,1 - 0,0
30.11.2020 10:00:00 10,5 9,9 13 7 19 11 ZW 1024,7 15 0,0
30.11.2020 09:00:00 7,8 7,4 16 9 21 11 ZZW 1024,1 - 0,0
30.11.2020 08:00:00 6,7 6,0 13 7 14 8 Z 1023,4 - 0,2
30.11.2020 07:00:00 6,7 6,0 4 2 10 5 ZZW 1022,9 18 0,0
30.11.2020 06:00:00 7,5 6,8 7 4 15 8 ZZW 1022,1 - 0,0
30.11.2020 05:00:00 7,5 6,8 9 5 14 7 Z 1021,7 - 0,0
30.11.2020 04:00:00 7,6 6,8 6 3 11 6 ZZO 1021,5 20 0,0
30.11.2020 03:00:00 7,6 6,7 8 4 13 7 Z 1021,3 - 0,0
30.11.2020 02:00:00 8,1 7,3 11 6 13 7 Z 1021,0 - 0,0
30.11.2020 01:00:00 8,5 7,6 8 4 15 8 Z 1020,8 - 0,0
30.11.2020 00:00:00 8,2 7,3 5 3 8 4 Z 1020,5 - 0,0
29.11.2020 23:00:00 8,8 7,7 3 2 8 4 OZO 1020,1 - 0,2
29.11.2020 22:00:00 9,6 8,5 10 5 14 7 ZZW 1019,6 - 0,0
29.11.2020 21:00:00 9,9 8,7 11 6 14 8 Z 1019,2 - 0,0
29.11.2020 20:00:00 10,7 9,1 4 2 9 5 ZW 1018,8 - 0,0
29.11.2020 19:00:00 11,5 9,7 6 3 8 4 ZZW 1018,1 15 0,0
29.11.2020 18:00:00 13,0 9,8 4 2 10 5 NNO 1017,6 - 0,0
29.11.2020 17:00:00 15,2 10,8 3 1 9 5 O 1017,2 - 0,0
29.11.2020 16:00:00 16,8 11,7 0 0 14 8 N 1016,6 20 0,0
29.11.2020 15:00:00 16,2 10,9 10 5 14 8 NNO 1016,4 - 0,0
29.11.2020 14:00:00 16,9 11,0 5 3 10 5 NNO 1016,6 - 0,0
29.11.2020 13:00:00 16,2 10,7 5 3 9 5 NNO 1016,7 - 0,0
29.11.2020 12:00:00 15,5 10,7 6 3 13 7 N 1017,0 - 0,0
29.11.2020 11:00:00 13,4 9,4 3 2 13 7 NNO 1017,0 - 0,0
29.11.2020 10:00:00 11,2 8,6 11 6 16 8 Z 1016,0 - 0,0
29.11.2020 09:00:00 7,8 6,6 11 6 16 9 Z 1015,5 - 0,0
29.11.2020 08:00:00 7,2 6,1 8 5 14 8 ZZO 1014,6 - 0,0
29.11.2020 07:00:00 7,6 6,4 8 4 17 9 O 1014,0 20 0,0
29.11.2020 06:00:00 7,7 6,3 8 4 18 10 ZZO 1013,2 - 0,0
29.11.2020 05:00:00 8,7 7,3 12 7 17 9 OZO 1013,0 - 0,0
29.11.2020 04:00:00 8,7 6,8 4 2 16 9 ZZW 1012,9 - 0,0
29.11.2020 03:00:00 9,2 7,3 9 5 18 10 ZO 1012,7 - 0,0
29.11.2020 02:00:00 9,7 7,5 9 5 17 9 ZZO 1012,6 - 0,0
29.11.2020 01:00:00 10,1 7,7 11 6 17 9 OZO 1012,7 - 0,0
29.11.2020 00:00:00 10,5 7,7 10 5 15 8 Z 1012,1 - 0,0
28.11.2020 23:00:00 11,4 8,1 12 6 24 13 ZO 1011,5 - 0,0
28.11.2020 22:00:00 11,8 9,0 16 9 25 13 ZO 1011,0 - 0,0
28.11.2020 21:00:00 11,1 9,0 7 4 19 10 OZO 1010,4 - 0,0
28.11.2020 20:00:00 12,0 8,7 8 5 22 12 ZO 1009,7 - 0,0
28.11.2020 19:00:00 12,8 9,2 13 7 22 12 OZO 1009,0 20 0,0
28.11.2020 18:00:00 14,0 9,6 12 6 26 14 OZO 1008,2 - 0,0
28.11.2020 17:00:00 15,5 9,8 16 9 31 17 O 1007,4 - 0,0
28.11.2020 16:00:00 16,6 10,0 21 11 29 16 O 1007,1 20 0,0
28.11.2020 15:00:00 15,2 10,4 9 5 16 9 NO 1006,5 - 0,0
28.11.2020 14:00:00 15,5 9,8 10 5 18 10 NO 1007,0 - 0,0
28.11.2020 13:00:00 14,7 9,7 10 5 15 8 NNO 1007,2 - 0,0
28.11.2020 12:00:00 15,2 10,0 0 0 9 5 N 1007,4 - 0,0
28.11.2020 11:00:00 12,8 8,7 6 3 10 5 O 1007,8 - 0,0
28.11.2020 10:00:00 9,5 8,3 4 2 13 7 Z 1007,8 - 0,0
28.11.2020 09:00:00 6,6 5,7 7 4 13 7 Z 1007,8 - 0,0
28.11.2020 08:00:00 6,6 5,9 6 3 10 5 Z 1007,3 - 0,0
28.11.2020 07:00:00 6,4 5,5 6 3 10 5 Z 1007,2 - 0,0
28.11.2020 06:00:00 6,8 5,9 6 3 11 6 Z 1007,0 - 0,0
28.11.2020 05:00:00 7,0 5,9 9 5 14 8 ZZW 1007,4 - 0,0
28.11.2020 04:00:00 7,5 6,6 9 5 13 7 Z 1007,7 18 0,0
28.11.2020 03:00:00 7,2 6,1 8 4 10 5 Z 1008,1 - 0,2
28.11.2020 02:00:00 7,6 6,5 6 3 13 7 ZZW 1008,3 - 0,0
28.11.2020 01:00:00 7,8 6,7 6 3 12 6 ZW 1008,9 - 0,0
28.11.2020 00:00:00 8,3 7,1 6 3 9 5 ZZW 1009,4 - 0,0

tt = temperatuur
td = dauwpunt
ff = windsnelheid
fx = windstoten
dd = windrichting
ppp = luchtdruk
vv = zicht
rr = neerslag

Weerstations in de omgeving